NKS00X KJAX-KFLL

Flight info

Callsign NKS00X
Flight time 1h 18m
Altitude 33000
Route EXBOX2 EXBOX PRMUS CUUDA3
Aircraft A20N/M-SDE2E3FGHIRWXY/LB1

Departure

Time 2026-05-03 21:48
Airport Jacksonville International Airport (KJAX)

Arrival

Time 2026-05-03 23:06
Airport Fort Lauderdale Hollywood International Airport (KFLL)
Time Latitude Longitude Altitude Speed Heading
2026-05-03 21:30 30.49296 -81.68508 39 ft 0 kts 265°
2026-05-03 21:36 30.49296 -81.68507 39 ft 0 kts 265°
2026-05-03 21:36 30.49297 -81.68499 39 ft 2 kts 264°
2026-05-03 21:36 30.49298 -81.68483 39 ft 2 kts 268°
2026-05-03 21:37 30.49298 -81.68473 40 ft 2 kts 270°
2026-05-03 21:37 30.49297 -81.68450 41 ft 2 kts 279°
2026-05-03 21:37 30.49292 -81.68432 37 ft 2 kts 314°
2026-05-03 21:37 30.49280 -81.68424 37 ft 1 kts 353°
2026-05-03 21:38 30.49277 -81.68423 35 ft 0 kts 354°
2026-05-03 21:41 30.49313 -81.68427 41 ft 11 kts 354°
2026-05-03 21:41 30.49412 -81.68436 40 ft 16 kts 356°
2026-05-03 21:42 30.49480 -81.68499 38 ft 10 kts 283°
2026-05-03 21:42 30.49470 -81.68590 38 ft 14 kts 262°
2026-05-03 21:42 30.49433 -81.68703 38 ft 16 kts 234°
2026-05-03 21:42 30.49382 -81.68832 38 ft 19 kts 264°
2026-05-03 21:43 30.49363 -81.68972 36 ft 17 kts 233°
2026-05-03 21:43 30.49246 -81.69018 38 ft 19 kts 188°
2026-05-03 21:43 30.49106 -81.69055 37 ft 21 kts 212°
2026-05-03 21:43 30.49010 -81.69197 37 ft 24 kts 230°
2026-05-03 21:44 30.48917 -81.69335 35 ft 17 kts 247°
2026-05-03 21:44 30.48966 -81.69452 34 ft 18 kts 308°
2026-05-03 21:44 30.49049 -81.69566 39 ft 19 kts 310°
2026-05-03 21:44 30.49143 -81.69691 37 ft 22 kts 311°
2026-05-03 21:45 30.49210 -81.69779 37 ft 15 kts 311°
2026-05-03 21:45 30.49283 -81.69878 37 ft 18 kts 310°
2026-05-03 21:45 30.49293 -81.69995 35 ft 15 kts 221°
2026-05-03 21:45 30.49274 -81.70011 35 ft 0 kts 220°
2026-05-03 21:46 30.49266 -81.70019 35 ft 7 kts 220°
2026-05-03 21:46 30.49208 -81.70056 37 ft 7 kts 165°
2026-05-03 21:46 30.49166 -81.70015 37 ft 9 kts 132°
2026-05-03 21:47 30.49158 -81.70003 37 ft 3 kts 129°
2026-05-03 21:47 30.49115 -81.69945 39 ft 30 kts 131°
2026-05-03 21:47 30.48798 -81.69511 35 ft 105 kts 131°
2026-05-03 21:47 30.48199 -81.68705 89 ft 153 kts 127°
2026-05-03 21:48 30.47462 -81.67715 412 ft 171 kts 127°
2026-05-03 21:48 30.46642 -81.66637 847 ft 187 kts 129°
2026-05-03 21:48 30.45716 -81.65421 1152 ft 220 kts 127°
2026-05-03 21:48 30.44677 -81.64027 1975 ft 230 kts 128°
2026-05-03 21:49 30.43659 -81.62664 3401 ft 216 kts 130°
2026-05-03 21:49 30.42639 -81.61419 4585 ft 216 kts 135°
2026-05-03 21:49 30.41511 -81.60188 5378 ft 228 kts 137°
2026-05-03 21:49 30.40328 -81.58927 6264 ft 235 kts 138°
2026-05-03 21:50 30.39105 -81.57614 7128 ft 241 kts 138°
2026-05-03 21:50 30.37848 -81.56247 7833 ft 258 kts 138°
2026-05-03 21:50 30.36486 -81.54754 8360 ft 282 kts 138°
2026-05-03 21:50 30.35022 -81.53139 9032 ft 297 kts 138°
2026-05-03 21:51 30.33534 -81.51489 9982 ft 302 kts 138°
2026-05-03 21:51 30.32001 -81.49789 10825 ft 308 kts 139°
2026-05-03 21:51 30.30438 -81.48059 11679 ft 314 kts 140°
2026-05-03 21:51 30.28843 -81.46296 12522 ft 320 kts 140°
2026-05-03 21:52 30.27215 -81.44499 13369 ft 325 kts 141°
2026-05-03 21:52 30.25564 -81.42677 14179 ft 331 kts 142°
2026-05-03 21:52 30.23892 -81.40834 14987 ft 333 kts 142°
2026-05-03 21:52 30.22205 -81.38974 15788 ft 336 kts 142°
2026-05-03 21:53 30.20506 -81.37104 16578 ft 339 kts 142°
2026-05-03 21:53 30.18786 -81.35212 17361 ft 342 kts 142°
2026-05-03 21:53 30.17055 -81.33309 18136 ft 345 kts 143°
2026-05-03 21:53 30.15305 -81.31386 18814 ft 349 kts 143°
2026-05-03 21:54 30.13532 -81.29438 19430 ft 353 kts 143°
2026-05-03 21:54 30.11763 -81.27497 20032 ft 357 kts 143°
2026-05-03 21:54 30.09943 -81.25500 20596 ft 362 kts 144°
2026-05-03 21:54 30.08109 -81.23490 21213 ft 366 kts 144°
2026-05-03 21:55 30.06246 -81.21447 21838 ft 370 kts 144°
2026-05-03 21:55 30.04260 -81.19623 22441 ft 361 kts 159°
2026-05-03 21:55 30.01989 -81.18544 23033 ft 347 kts 176°
2026-05-03 21:55 29.99627 -81.18181 23644 ft 341 kts 184°
2026-05-03 21:56 29.97250 -81.17947 24200 ft 343 kts 184°
2026-05-03 21:56 29.94870 -81.17706 24773 ft 344 kts 184°
2026-05-03 21:56 29.92483 -81.17461 25303 ft 346 kts 184°
2026-05-03 21:56 29.90078 -81.17154 25822 ft 353 kts 179°
2026-05-03 21:57 29.87672 -81.16371 26330 ft 368 kts 168°
2026-05-03 21:57 29.85345 -81.14996 26818 ft 384 kts 157°
2026-05-03 21:57 29.83145 -81.13286 27285 ft 387 kts 157°
2026-05-03 21:57 29.80838 -81.11757 27721 ft 379 kts 165°
2026-05-03 21:58 29.78427 -81.10550 28200 ft 377 kts 168°
2026-05-03 21:58 29.75995 -81.09364 28664 ft 379 kts 168°
2026-05-03 21:58 29.73558 -81.08172 29107 ft 382 kts 168°
2026-05-03 21:58 29.71107 -81.06972 29539 ft 384 kts 168°
2026-05-03 21:59 29.69475 -81.06172 29826 ft 385 kts 168°
2026-05-03 21:59 29.66164 -81.04549 30356 ft 388 kts 168°
2026-05-03 21:59 29.63672 -81.03329 30733 ft 390 kts 168°
2026-05-03 21:59 29.61177 -81.02106 31166 ft 389 kts 169°
2026-05-03 22:00 29.58686 -81.00885 31600 ft 389 kts 169°
2026-05-03 22:00 29.56190 -80.99664 31921 ft 389 kts 169°
2026-05-03 22:00 29.51159 -80.97213 31968 ft 393 kts 169°
2026-05-03 22:01 29.46156 -80.94766 32002 ft 391 kts 169°
2026-05-03 22:01 29.41144 -80.92328 32001 ft 391 kts 169°
2026-05-03 22:02 29.36173 -80.89909 31998 ft 390 kts 169°
2026-05-03 22:02 29.31181 -80.87482 31997 ft 387 kts 169°
2026-05-03 22:03 29.26262 -80.85089 32012 ft 383 kts 170°
2026-05-03 22:03 29.21340 -80.82708 31973 ft 384 kts 170°
2026-05-03 22:04 29.16422 -80.80326 31991 ft 384 kts 170°
2026-05-03 22:04 29.11531 -80.77958 31990 ft 384 kts 170°
2026-05-03 22:05 29.06611 -80.75578 31990 ft 384 kts 170°
2026-05-03 22:05 29.01689 -80.73200 31988 ft 384 kts 170°
2026-05-03 22:06 28.96770 -80.70826 31989 ft 384 kts 170°
2026-05-03 22:06 28.91826 -80.68577 31951 ft 381 kts 172°
2026-05-03 22:07 28.86869 -80.66390 31985 ft 382 kts 172°
2026-05-03 22:07 28.81923 -80.64189 31971 ft 382 kts 172°
2026-05-03 22:08 28.76977 -80.61980 31968 ft 382 kts 172°
2026-05-03 22:08 28.72025 -80.59770 31958 ft 382 kts 172°
2026-05-03 22:09 28.67075 -80.57563 31945 ft 382 kts 172°
2026-05-03 22:10 28.59628 -80.54253 31937 ft 390 kts 172°
2026-05-03 22:10 28.57066 -80.53126 31927 ft 401 kts 171°
2026-05-03 22:10 28.54469 -80.51978 31930 ft 407 kts 171°
2026-05-03 22:11 28.49163 -80.49611 31933 ft 410 kts 171°
2026-05-03 22:11 28.43858 -80.47247 31933 ft 409 kts 171°
2026-05-03 22:12 28.38553 -80.44893 31935 ft 409 kts 171°
2026-05-03 22:12 28.33247 -80.42544 31939 ft 409 kts 171°
2026-05-03 22:13 28.27919 -80.40192 31940 ft 412 kts 171°
2026-05-03 22:13 28.22588 -80.37834 31939 ft 411 kts 171°
2026-05-03 22:14 28.17254 -80.35480 31942 ft 411 kts 171°
2026-05-03 22:14 28.11921 -80.33129 31950 ft 411 kts 171°
2026-05-03 22:15 28.06609 -80.30852 31952 ft 408 kts 173°
2026-05-03 22:15 28.01240 -80.28791 31868 ft 408 kts 173°
2026-05-03 22:15 27.98552 -80.27762 31617 ft 406 kts 173°
2026-05-03 22:16 27.95911 -80.26735 31466 ft 393 kts 172°
2026-05-03 22:16 27.93384 -80.25737 31217 ft 377 kts 173°
2026-05-03 22:16 27.90925 -80.24776 30614 ft 372 kts 172°
2026-05-03 22:16 27.88481 -80.23832 29917 ft 369 kts 172°
2026-05-03 22:17 27.86061 -80.22897 29180 ft 365 kts 172°
2026-05-03 22:17 27.83669 -80.21968 28485 ft 362 kts 172°
2026-05-03 22:17 27.81299 -80.21046 27790 ft 358 kts 172°
2026-05-03 22:17 27.78950 -80.20132 27107 ft 355 kts 172°
2026-05-03 22:18 27.76629 -80.19229 26441 ft 352 kts 172°
2026-05-03 22:18 27.74352 -80.18343 25801 ft 349 kts 172°
2026-05-03 22:18 27.72068 -80.17455 25172 ft 346 kts 172°
2026-05-03 22:18 27.69796 -80.16573 24525 ft 343 kts 172°
2026-05-03 22:19 27.67557 -80.15701 24187 ft 339 kts 172°
2026-05-03 22:19 27.65255 -80.14822 24083 ft 360 kts 171°
2026-05-03 22:19 27.62810 -80.13894 24035 ft 381 kts 171°
2026-05-03 22:19 27.60234 -80.12894 24028 ft 399 kts 169°
2026-05-03 22:20 27.57617 -80.11812 24027 ft 401 kts 168°
2026-05-03 22:20 27.55008 -80.10710 24027 ft 400 kts 168°
2026-05-03 22:20 27.52402 -80.09613 24026 ft 400 kts 168°
2026-05-03 22:20 27.49796 -80.08518 24026 ft 402 kts 166°
2026-05-03 22:21 27.47327 -80.06932 24025 ft 419 kts 150°
2026-05-03 22:21 27.45246 -80.04598 24020 ft 435 kts 135°
2026-05-03 22:21 27.43704 -80.01635 24017 ft 449 kts 119°
2026-05-03 22:21 27.42833 -79.98209 24015 ft 461 kts 103°
2026-05-03 22:22 27.42732 -79.94575 24013 ft 469 kts 86°
2026-05-03 22:22 27.43216 -79.90943 24012 ft 470 kts 82°
2026-05-03 22:22 27.43758 -79.87316 24013 ft 470 kts 84°
2026-05-03 22:22 27.43899 -79.83661 24012 ft 463 kts 99°
2026-05-03 22:23 27.43580 -79.81314 23983 ft 454 kts 109°
2026-05-03 22:23 27.42515 -79.78070 23878 ft 429 kts 125°
2026-05-03 22:23 27.40870 -79.75442 23717 ft 394 kts 143°
2026-05-03 22:23 27.38814 -79.73620 23331 ft 362 kts 161°
2026-05-03 22:24 27.36544 -79.72573 22586 ft 347 kts 173°
2026-05-03 22:24 27.34230 -79.71951 21893 ft 338 kts 179°
2026-05-03 22:24 27.31925 -79.71615 21207 ft 330 kts 185°
2026-05-03 22:24 27.29654 -79.71586 20535 ft 322 kts 191°
2026-05-03 22:25 27.27460 -79.71901 19873 ft 314 kts 199°
2026-05-03 22:25 27.25328 -79.72414 19222 ft 312 kts 199°
2026-05-03 22:25 27.23203 -79.72905 18605 ft 311 kts 198°
2026-05-03 22:25 27.21088 -79.73387 17946 ft 309 kts 198°
2026-05-03 22:26 27.18989 -79.73865 17300 ft 306 kts 198°
2026-05-03 22:26 27.16883 -79.74349 16259 ft 315 kts 198°
2026-05-03 22:26 27.14683 -79.74863 15019 ft 331 kts 197°
2026-05-03 22:26 27.12401 -79.75391 14172 ft 334 kts 197°
2026-05-03 22:27 27.10135 -79.75908 13418 ft 331 kts 196°
2026-05-03 22:27 27.07882 -79.76421 12595 ft 329 kts 196°
2026-05-03 22:27 27.05649 -79.76931 11854 ft 326 kts 196°
2026-05-03 22:27 27.03433 -79.77438 11127 ft 323 kts 196°
2026-05-03 22:28 27.01269 -79.77934 10428 ft 321 kts 195°
2026-05-03 22:28 26.99088 -79.78439 9906 ft 318 kts 195°
2026-05-03 22:28 26.96916 -79.78923 9279 ft 319 kts 196°
2026-05-03 22:28 26.94753 -79.79407 8658 ft 314 kts 195°
2026-05-03 22:29 26.92630 -79.79900 8212 ft 309 kts 195°
2026-05-03 22:29 26.90505 -79.80397 8053 ft 313 kts 195°
2026-05-03 22:29 26.88381 -79.80887 8006 ft 309 kts 195°
2026-05-03 22:29 26.86271 -79.81370 8010 ft 311 kts 195°
2026-05-03 22:30 26.84150 -79.81854 8017 ft 310 kts 195°
2026-05-03 22:30 26.82034 -79.82336 8020 ft 310 kts 195°
2026-05-03 22:30 26.79914 -79.82820 8007 ft 311 kts 194°
2026-05-03 22:30 26.77782 -79.83306 8018 ft 312 kts 194°
2026-05-03 22:31 26.75650 -79.83791 8007 ft 313 kts 194°
2026-05-03 22:31 26.73516 -79.84277 8010 ft 313 kts 194°
2026-05-03 22:31 26.71388 -79.84761 8021 ft 312 kts 194°
2026-05-03 22:31 26.69256 -79.85246 8011 ft 312 kts 194°
2026-05-03 22:32 26.67131 -79.85735 8026 ft 311 kts 196°
2026-05-03 22:32 26.65189 -79.86716 8021 ft 306 kts 219°
2026-05-03 22:32 26.63811 -79.88471 8020 ft 300 kts 243°
2026-05-03 22:32 26.63210 -79.90683 8030 ft 299 kts 262°
2026-05-03 22:33 26.62934 -79.92989 8019 ft 299 kts 263°
2026-05-03 22:33 26.63012 -79.95267 8016 ft 300 kts 284°
2026-05-03 22:33 26.63948 -79.97340 8025 ft 305 kts 308°
2026-05-03 22:33 26.65617 -79.98822 8030 ft 311 kts 332°
2026-05-03 22:34 26.67718 -79.99432 8015 ft 315 kts 351°
2026-05-03 22:34 26.69882 -79.99370 8030 ft 313 kts 10°
2026-05-03 22:34 26.71852 -79.98365 8030 ft 312 kts 36°
2026-05-03 22:34 26.73263 -79.96562 8028 ft 311 kts 61°
2026-05-03 22:35 26.73911 -79.94254 8026 ft 315 kts 82°
2026-05-03 22:35 26.74212 -79.91829 8012 ft 314 kts 82°
2026-05-03 22:35 26.74375 -79.89397 8020 ft 314 kts 96°
2026-05-03 22:35 26.73747 -79.87082 8011 ft 311 kts 122°
2026-05-03 22:36 26.72345 -79.85295 8023 ft 305 kts 147°
2026-05-03 22:36 26.70442 -79.84348 8018 ft 298 kts 173°
2026-05-03 22:36 26.68444 -79.84398 8027 ft 290 kts 198°
2026-05-03 22:36 26.66508 -79.85113 8017 ft 289 kts 201°
2026-05-03 22:37 26.64608 -79.85762 8018 ft 290 kts 199°
2026-05-03 22:37 26.62662 -79.86332 8012 ft 287 kts 197°
2026-05-03 22:37 26.60752 -79.86830 8016 ft 277 kts 196°
2026-05-03 22:37 26.58863 -79.87296 8019 ft 279 kts 195°
2026-05-03 22:38 26.56964 -79.87756 8028 ft 279 kts 195°
2026-05-03 22:38 26.55062 -79.88215 8028 ft 280 kts 195°
2026-05-03 22:38 26.53157 -79.88675 8029 ft 279 kts 195°
2026-05-03 22:38 26.51250 -79.89137 8019 ft 280 kts 195°
2026-05-03 22:39 26.49355 -79.89594 8021 ft 277 kts 196°
2026-05-03 22:39 26.47474 -79.90050 8021 ft 278 kts 196°
2026-05-03 22:39 26.45602 -79.90505 8016 ft 278 kts 196°
2026-05-03 22:39 26.43713 -79.90965 8018 ft 278 kts 196°
2026-05-03 22:40 26.41817 -79.91425 8022 ft 279 kts 196°
2026-05-03 22:40 26.39933 -79.91873 8012 ft 276 kts 196°
2026-05-03 22:40 26.38098 -79.92512 8017 ft 276 kts 206°
2026-05-03 22:40 26.36408 -79.93496 8018 ft 273 kts 214°
2026-05-03 22:41 26.34783 -79.94554 8015 ft 270 kts 212°
2026-05-03 22:41 26.33145 -79.95608 8013 ft 272 kts 213°
2026-05-03 22:41 26.31509 -79.96664 8012 ft 272 kts 213°
2026-05-03 22:41 26.29867 -79.97716 8007 ft 272 kts 213°
2026-05-03 22:42 26.28243 -79.98753 8007 ft 273 kts 213°
2026-05-03 22:42 26.26601 -79.99802 8006 ft 272 kts 213°
2026-05-03 22:42 26.24952 -80.00859 8007 ft 273 kts 213°
2026-05-03 22:42 26.23306 -80.01916 8006 ft 273 kts 213°
2026-05-03 22:43 26.21664 -80.02971 7995 ft 273 kts 213°
2026-05-03 22:43 26.20030 -80.04021 8006 ft 270 kts 213°
2026-05-03 22:43 26.18539 -80.05258 8007 ft 267 kts 229°
2026-05-03 22:43 26.17532 -80.06975 8007 ft 265 kts 248°
2026-05-03 22:44 26.16942 -80.08917 7997 ft 265 kts 252°
2026-05-03 22:44 26.16365 -80.10872 7997 ft 265 kts 252°
2026-05-03 22:44 26.15789 -80.12796 7998 ft 266 kts 252°
2026-05-03 22:44 26.15264 -80.14763 7996 ft 265 kts 258°
2026-05-03 22:45 26.15026 -80.16796 8004 ft 264 kts 266°
2026-05-03 22:45 26.15083 -80.18795 7988 ft 253 kts 279°
2026-05-03 22:45 26.15799 -80.20505 7997 ft 241 kts 308°
2026-05-03 22:45 26.17146 -80.21508 7995 ft 231 kts 340°
2026-05-03 22:46 26.18699 -80.21723 7973 ft 218 kts 352°
2026-05-03 22:46 26.20161 -80.21783 7989 ft 205 kts 353°
2026-05-03 22:46 26.21612 -80.21925 7976 ft 209 kts 335°
2026-05-03 22:46 26.22757 -80.22780 7997 ft 196 kts 300°
2026-05-03 22:47 26.23176 -80.24161 7997 ft 189 kts 265°
2026-05-03 22:47 26.22724 -80.25500 7998 ft 190 kts 229°
2026-05-03 22:47 26.21643 -80.26369 7996 ft 194 kts 213°
2026-05-03 22:47 26.20468 -80.27098 7997 ft 193 kts 212°
2026-05-03 22:48 26.19299 -80.27823 7931 ft 190 kts 212°
2026-05-03 22:48 26.18143 -80.28536 7587 ft 190 kts 212°
2026-05-03 22:48 26.16994 -80.29244 7186 ft 191 kts 212°
2026-05-03 22:48 26.15838 -80.29962 6825 ft 189 kts 213°
2026-05-03 22:49 26.14682 -80.30670 6451 ft 189 kts 213°
2026-05-03 22:49 26.13715 -80.31599 6002 ft 185 kts 243°
2026-05-03 22:49 26.13424 -80.32976 5565 ft 186 kts 266°
2026-05-03 22:49 26.13392 -80.34404 5311 ft 184 kts 268°
2026-05-03 22:50 26.13370 -80.35810 5167 ft 181 kts 268°
2026-05-03 22:50 26.13339 -80.37226 4871 ft 185 kts 268°
2026-05-03 22:50 26.13300 -80.38645 4658 ft 183 kts 268°
2026-05-03 22:50 26.13282 -80.39973 4526 ft 180 kts 268°
2026-05-03 22:51 26.13266 -80.41368 4382 ft 182 kts 267°
2026-05-03 22:51 26.13232 -80.42802 4230 ft 190 kts 269°
2026-05-03 22:51 26.13209 -80.44296 4155 ft 194 kts 267°
2026-05-03 22:51 26.13169 -80.45812 4148 ft 201 kts 268°
2026-05-03 22:52 26.13167 -80.47397 4100 ft 207 kts 270°
2026-05-03 22:52 26.13139 -80.49015 4073 ft 209 kts 266°
2026-05-03 22:52 26.13085 -80.50646 4021 ft 211 kts 268°
2026-05-03 22:52 26.13030 -80.52264 3997 ft 216 kts 269°
2026-05-03 22:53 26.12985 -80.53918 4003 ft 210 kts 267°
2026-05-03 22:53 26.12951 -80.55497 3999 ft 196 kts 268°
2026-05-03 22:53 26.12925 -80.56944 4008 ft 181 kts 268°
2026-05-03 22:53 26.12902 -80.58389 4009 ft 185 kts 268°
2026-05-03 22:54 26.12884 -80.59813 4018 ft 183 kts 268°
2026-05-03 22:54 26.12857 -80.61245 4019 ft 187 kts 268°
2026-05-03 22:54 26.12832 -80.62669 4010 ft 182 kts 268°
2026-05-03 22:54 26.12807 -80.64091 4022 ft 186 kts 268°
2026-05-03 22:55 26.12744 -80.65517 4010 ft 184 kts 256°
2026-05-03 22:55 26.12070 -80.66748 4013 ft 191 kts 218°
2026-05-03 22:55 26.10848 -80.67231 4014 ft 191 kts 179°
2026-05-03 22:55 26.09499 -80.67061 4013 ft 195 kts 173°
2026-05-03 22:56 26.08169 -80.66819 4011 ft 193 kts 169°
2026-05-03 22:56 26.06993 -80.66130 4017 ft 200 kts 135°
2026-05-03 22:56 26.06380 -80.64740 4018 ft 205 kts 98°
2026-05-03 22:56 26.06320 -80.63172 4009 ft 202 kts 88°
2026-05-03 22:57 26.06393 -80.61591 4013 ft 206 kts 86°
2026-05-03 22:57 26.06472 -80.60034 4021 ft 200 kts 88°
2026-05-03 22:57 26.06527 -80.58469 4013 ft 205 kts 89°
2026-05-03 22:57 26.06631 -80.56885 4017 ft 204 kts 82°
2026-05-03 22:58 26.06793 -80.55317 4015 ft 204 kts 86°
2026-05-03 22:58 26.06842 -80.53739 4023 ft 205 kts 90°
2026-05-03 22:58 26.06827 -80.52150 4011 ft 205 kts 90°
2026-05-03 22:58 26.06811 -80.50557 4007 ft 204 kts 91°
2026-05-03 22:59 26.06802 -80.48994 4003 ft 199 kts 90°
2026-05-03 22:59 26.06797 -80.47481 4011 ft 193 kts 91°
2026-05-03 22:59 26.06785 -80.45992 4010 ft 190 kts 91°
2026-05-03 22:59 26.06775 -80.44536 4007 ft 192 kts 91°
2026-05-03 23:00 26.06765 -80.43068 4008 ft 186 kts 91°
2026-05-03 23:00 26.06756 -80.41594 4015 ft 193 kts 91°
2026-05-03 23:00 26.06747 -80.40141 3897 ft 186 kts 91°
2026-05-03 23:00 26.06740 -80.38726 3771 ft 178 kts 90°
2026-05-03 23:01 26.06730 -80.37324 3606 ft 183 kts 91°
2026-05-03 23:01 26.06717 -80.35921 3392 ft 178 kts 90°
2026-05-03 23:01 26.06710 -80.34571 3208 ft 170 kts 90°
2026-05-03 23:01 26.06700 -80.33288 2986 ft 164 kts 90°
2026-05-03 23:02 26.06694 -80.32050 2780 ft 156 kts 90°
2026-05-03 23:02 26.06686 -80.30862 2585 ft 149 kts 90°
2026-05-03 23:02 26.06679 -80.29713 2394 ft 148 kts 90°
2026-05-03 23:02 26.06672 -80.28580 2202 ft 146 kts 89°
2026-05-03 23:03 26.06665 -80.27456 2011 ft 144 kts 89°
2026-05-03 23:03 26.06658 -80.26340 1823 ft 143 kts 89°
2026-05-03 23:03 26.06651 -80.25233 1632 ft 144 kts 89°
2026-05-03 23:03 26.06643 -80.24134 1436 ft 141 kts 89°
2026-05-03 23:04 26.06637 -80.23039 1271 ft 141 kts 88°
2026-05-03 23:04 26.06629 -80.21949 1077 ft 141 kts 87°
2026-05-03 23:04 26.06619 -80.20859 891 ft 139 kts 88°
2026-05-03 23:04 26.06604 -80.19790 722 ft 138 kts 87°
2026-05-03 23:05 26.06599 -80.18727 524 ft 138 kts 86°
2026-05-03 23:05 26.06602 -80.17660 377 ft 140 kts 86°
2026-05-03 23:05 26.06596 -80.16580 179 ft 136 kts 87°
2026-05-03 23:05 26.06590 -80.15871 87 ft 137 kts 87°
2026-05-03 23:06 26.06580 -80.14578 19 ft 99 kts 89°
2026-05-03 23:06 26.06586 -80.14186 19 ft 55 kts 91°
2026-05-03 23:06 26.06588 -80.13910 21 ft 30 kts 88°
2026-05-03 23:06 26.06668 -80.13737 27 ft 15 kts 35°
2026-05-03 23:07 26.06742 -80.13776 26 ft 12 kts 275°
2026-05-03 23:07 26.06742 -80.13784 26 ft 0 kts 271°
2026-05-03 23:11 26.06742 -80.13785 25 ft 2 kts 271°
2026-05-03 23:11 26.06744 -80.13858 27 ft 13 kts 270°
2026-05-03 23:11 26.06738 -80.13978 24 ft 19 kts 261°
2026-05-03 23:11 26.06692 -80.14136 19 ft 24 kts 261°
2026-05-03 23:12 26.06691 -80.14299 18 ft 21 kts 270°
2026-05-03 23:12 26.06693 -80.14476 17 ft 25 kts 271°
2026-05-03 23:12 26.06692 -80.14652 17 ft 22 kts 270°
2026-05-03 23:12 26.06694 -80.14820 20 ft 18 kts 271°
2026-05-03 23:13 26.06721 -80.14916 22 ft 11 kts 333°
2026-05-03 23:13 26.06752 -80.14909 22 ft 0 kts 39°
2026-05-03 23:13 26.06753 -80.14909 22 ft 0 kts 39°
2026-05-03 23:13 26.06767 -80.14873 22 ft 11 kts 77°
2026-05-03 23:14 26.06766 -80.14757 19 ft 19 kts 90°
2026-05-03 23:14 26.06765 -80.14603 15 ft 20 kts 90°
2026-05-03 23:14 26.06761 -80.14536 15 ft 6 kts 101°
2026-05-03 23:14 26.06754 -80.14475 16 ft 9 kts 94°
2026-05-03 23:15 26.06752 -80.14392 17 ft 12 kts 89°
2026-05-03 23:15 26.06767 -80.14293 18 ft 14 kts 50°
2026-05-03 23:15 26.06847 -80.14255 18 ft 9 kts
2026-05-03 23:15 26.06888 -80.14255 18 ft 0 kts 358°
2026-05-03 23:17 26.06887 -80.14255 18 ft 0 kts 358°